UAL42 KEWR-EDDF

Flight info

Callsign UAL42
Flight time 7h 55m
Altitude 35000
Route GREKI DCT JUDDS DCT MARTN DCT TOPPS N569B TUDEP/M084F360 NATX GISTI/N0481F370 DCT ENJEX DCT ADHAV DCT AXNEF DCT ZIPWE DCT OZZIL DCT SAWPE Q63 CPT UL9 BIG L607 KONAN UL607 KOK DCT SPI T180 NIVNU T847 IMCOM IMCOM1A
Aircraft B77W/H-SDE1E2E3FGHIJ2J3J4J5M1RWXY/LB1D1

Departure

Time 2026-05-06 21:42
Airport Newark Liberty International Airport (KEWR)

Arrival

Time 2026-05-07 05:37
Airport Frankfurt Main Airport (EDDF)
Time Latitude Longitude Altitude Speed Heading
2026-05-06 20:57 40.69687 -74.17682 27 ft 0 kts 165°
2026-05-06 21:19 40.69689 -74.17683 27 ft 0 kts 165°
2026-05-06 21:20 40.69695 -74.17685 27 ft 2 kts 165°
2026-05-06 21:21 40.69711 -74.17690 25 ft 2 kts 167°
2026-05-06 21:21 40.69727 -74.17695 26 ft 2 kts 169°
2026-05-06 21:21 40.69743 -74.17698 26 ft 2 kts 171°
2026-05-06 21:21 40.69759 -74.17701 25 ft 2 kts 174°
2026-05-06 21:22 40.69776 -74.17703 26 ft 2 kts 180°
2026-05-06 21:22 40.69792 -74.17702 26 ft 2 kts 187°
2026-05-06 21:22 40.69808 -74.17698 25 ft 2 kts 202°
2026-05-06 21:22 40.69823 -74.17688 25 ft 2 kts 225°
2026-05-06 21:23 40.69829 -74.17678 24 ft 0 kts 226°
2026-05-06 21:23 40.69836 -74.17669 26 ft 2 kts 218°
2026-05-06 21:24 40.69849 -74.17655 25 ft 2 kts 214°
2026-05-06 21:24 40.69863 -74.17644 24 ft 2 kts 206°
2026-05-06 21:24 40.69878 -74.17636 26 ft 2 kts 193°
2026-05-06 21:24 40.69894 -74.17633 26 ft 2 kts 179°
2026-05-06 21:25 40.69911 -74.17635 26 ft 2 kts 165°
2026-05-06 21:25 40.69926 -74.17642 25 ft 2 kts 153°
2026-05-06 21:25 40.69940 -74.17653 25 ft 2 kts 144°
2026-05-06 21:25 40.69947 -74.17660 25 ft 0 kts 142°
2026-05-06 21:26 40.69948 -74.17660 25 ft 0 kts 142°
2026-05-06 21:27 40.69953 -74.17666 25 ft 1 kts 135°
2026-05-06 21:28 40.69954 -74.17667 25 ft 0 kts 135°
2026-05-06 21:33 40.69945 -74.17656 25 ft 6 kts 137°
2026-05-06 21:33 40.69922 -74.17628 26 ft 1 kts 134°
2026-05-06 21:33 40.69914 -74.17615 27 ft 4 kts 127°
2026-05-06 21:34 40.69905 -74.17546 27 ft 12 kts 93°
2026-05-06 21:34 40.69897 -74.17429 27 ft 2 kts 112°
2026-05-06 21:34 40.69869 -74.17386 27 ft 11 kts 131°
2026-05-06 21:34 40.69841 -74.17343 27 ft 6 kts 131°
2026-05-06 21:35 40.69823 -74.17271 27 ft 12 kts 74°
2026-05-06 21:35 40.69861 -74.17221 27 ft 5 kts 13°
2026-05-06 21:35 40.69902 -74.17270 27 ft 13 kts 295°
2026-05-06 21:35 40.69933 -74.17348 27 ft 8 kts 309°
2026-05-06 21:36 40.70010 -74.17375 27 ft 12 kts
2026-05-06 21:36 40.70040 -74.17370 27 ft 9 kts
2026-05-06 21:36 40.70091 -74.17364 27 ft 1 kts 11°
2026-05-06 21:36 40.70104 -74.17341 27 ft 6 kts 66°
2026-05-06 21:37 40.70126 -74.17276 27 ft 0 kts 64°
2026-05-06 21:37 40.70125 -74.17250 27 ft 7 kts 101°
2026-05-06 21:37 40.70110 -74.17144 27 ft 16 kts 97°
2026-05-06 21:37 40.70098 -74.16954 27 ft 25 kts 95°
2026-05-06 21:38 40.70091 -74.16838 27 ft 11 kts 95°
2026-05-06 21:38 40.70082 -74.16687 26 ft 21 kts 95°
2026-05-06 21:38 40.70066 -74.16520 28 ft 14 kts 94°
2026-05-06 21:38 40.70056 -74.16369 27 ft 0 kts 105°
2026-05-06 21:39 40.70043 -74.16359 30 ft 4 kts 165°
2026-05-06 21:39 40.70014 -74.16372 26 ft 0 kts 205°
2026-05-06 21:41 40.69983 -74.16392 28 ft 18 kts 205°
2026-05-06 21:41 40.69717 -74.16561 29 ft 76 kts 206°
2026-05-06 21:41 40.69032 -74.16998 27 ft 139 kts 206°
2026-05-06 21:41 40.68026 -74.17668 115 ft 176 kts 207°
2026-05-06 21:42 40.66903 -74.18343 710 ft 177 kts 203°
2026-05-06 21:42 40.66113 -74.18613 1144 ft 177 kts 190°
2026-05-06 21:42 40.64897 -74.18777 1831 ft 176 kts 193°
2026-05-06 21:42 40.63599 -74.18997 2082 ft 202 kts 194°
2026-05-06 21:43 40.62257 -74.19650 2220 ft 218 kts 225°
2026-05-06 21:43 40.61448 -74.21385 2607 ft 230 kts 249°
2026-05-06 21:43 40.60883 -74.23379 3379 ft 233 kts 250°
2026-05-06 21:43 40.60283 -74.25386 4171 ft 236 kts 249°
2026-05-06 21:44 40.59677 -74.27391 5041 ft 235 kts 250°
2026-05-06 21:44 40.59080 -74.29377 5922 ft 233 kts 252°
2026-05-06 21:44 40.58906 -74.31493 6548 ft 241 kts 278°
2026-05-06 21:44 40.59612 -74.33508 7308 ft 248 kts 301°
2026-05-06 21:45 40.60753 -74.35264 7974 ft 256 kts 308°
2026-05-06 21:45 40.62269 -74.36648 8554 ft 275 kts 325°
2026-05-06 21:45 40.64030 -74.37669 9303 ft 282 kts 333°
2026-05-06 21:45 40.66066 -74.37933 9897 ft 309 kts 360°
2026-05-06 21:46 40.68205 -74.37025 10402 ft 334 kts 21°
2026-05-06 21:46 40.70166 -74.35180 10552 ft 362 kts 38°
2026-05-06 21:46 40.72037 -74.32808 10766 ft 386 kts 41°
2026-05-06 21:46 40.73990 -74.30211 10935 ft 410 kts 42°
2026-05-06 21:47 40.76029 -74.27461 11445 ft 423 kts 42°
2026-05-06 21:47 40.78123 -74.24678 12152 ft 431 kts 42°
2026-05-06 21:47 40.80241 -74.21903 12996 ft 436 kts 41°
2026-05-06 21:47 40.82412 -74.19063 13839 ft 441 kts 42°
2026-05-06 21:48 40.84609 -74.16182 14624 ft 446 kts 42°
2026-05-06 21:48 40.86820 -74.13276 15423 ft 450 kts 42°
2026-05-06 21:48 40.89065 -74.10317 16281 ft 454 kts 42°
2026-05-06 21:48 40.91319 -74.07341 17053 ft 459 kts 43°
2026-05-06 21:49 40.93571 -74.04363 17743 ft 465 kts 43°
2026-05-06 21:49 40.95878 -74.01307 18423 ft 470 kts 43°
2026-05-06 21:49 40.98192 -73.98238 19045 ft 475 kts 42°
2026-05-06 21:49 41.00541 -73.95121 19682 ft 480 kts 41°
2026-05-06 21:50 41.02885 -73.92007 20274 ft 485 kts 41°
2026-05-06 21:50 41.05290 -73.88810 20854 ft 491 kts 40°
2026-05-06 21:50 41.07717 -73.85580 21473 ft 496 kts 40°
2026-05-06 21:50 41.10150 -73.82338 22102 ft 500 kts 39°
2026-05-06 21:51 41.12618 -73.79045 22719 ft 504 kts 39°
2026-05-06 21:51 41.15102 -73.75726 23293 ft 509 kts 38°
2026-05-06 21:51 41.17615 -73.72368 23739 ft 515 kts 38°
2026-05-06 21:51 41.20149 -73.68977 24209 ft 520 kts 38°
2026-05-06 21:52 41.22703 -73.65553 24692 ft 524 kts 38°
2026-05-06 21:52 41.25275 -73.62099 25242 ft 526 kts 39°
2026-05-06 21:52 41.27847 -73.58639 25756 ft 528 kts 39°
2026-05-06 21:52 41.30442 -73.55146 26188 ft 533 kts 39°
2026-05-06 21:53 41.33058 -73.51624 26558 ft 539 kts 39°
2026-05-06 21:53 41.35704 -73.48056 26965 ft 543 kts 39°
2026-05-06 21:53 41.38373 -73.44452 27392 ft 547 kts 39°
2026-05-06 21:53 41.41053 -73.40825 27842 ft 551 kts 39°
2026-05-06 21:54 41.43751 -73.37170 28205 ft 555 kts 39°
2026-05-06 21:54 41.46474 -73.33480 28559 ft 560 kts 39°
2026-05-06 21:54 41.49219 -73.29764 28849 ft 563 kts 38°
2026-05-06 21:54 41.52000 -73.26058 29233 ft 565 kts 38°
2026-05-06 21:55 41.54795 -73.22364 29683 ft 565 kts 38°
2026-05-06 21:55 41.57588 -73.18671 30113 ft 565 kts 38°
2026-05-06 21:55 41.60375 -73.14972 30556 ft 564 kts 38°
2026-05-06 21:55 41.63151 -73.11271 31032 ft 562 kts 37°
2026-05-06 21:56 41.65926 -73.07576 31482 ft 560 kts 37°
2026-05-06 21:56 41.68660 -73.03952 31915 ft 559 kts 37°
2026-05-06 21:56 41.71454 -73.00259 32324 ft 559 kts 37°
2026-05-06 21:56 41.74153 -72.96693 32740 ft 558 kts 36°
2026-05-06 21:57 41.76924 -72.93025 33109 ft 557 kts 37°
2026-05-06 21:57 41.79660 -72.89395 33571 ft 554 kts 37°
2026-05-06 21:57 41.82394 -72.85758 33932 ft 553 kts 37°
2026-05-06 21:57 41.85111 -72.82139 34218 ft 553 kts 37°
2026-05-06 21:58 41.87848 -72.78489 34482 ft 553 kts 37°
2026-05-06 21:58 41.90557 -72.74871 34727 ft 554 kts 37°
2026-05-06 21:58 41.96069 -72.67504 34799 ft 559 kts 37°
2026-05-06 21:59 42.01513 -72.60187 34749 ft 552 kts 37°
2026-05-06 21:59 42.06922 -72.52900 34778 ft 548 kts 37°
2026-05-06 22:00 42.12340 -72.45598 34794 ft 549 kts 37°
2026-05-06 22:00 42.17734 -72.38312 34792 ft 549 kts 37°
2026-05-06 22:01 42.23127 -72.31003 34789 ft 550 kts 37°
2026-05-06 22:01 42.28521 -72.23677 34761 ft 553 kts 38°
2026-05-06 22:02 42.33914 -72.16324 34806 ft 553 kts 38°
2026-05-06 22:02 42.39329 -72.08924 34817 ft 554 kts 38°
2026-05-06 22:03 42.44758 -72.01489 34800 ft 556 kts 39°
2026-05-06 22:03 42.50137 -71.94099 34796 ft 555 kts 39°
2026-05-06 22:04 42.55551 -71.86642 34796 ft 553 kts 39°
2026-05-06 22:04 42.60946 -71.79194 34790 ft 553 kts 39°
2026-05-06 22:05 42.66333 -71.71737 34792 ft 552 kts 39°
2026-05-06 22:05 42.71701 -71.64288 34790 ft 551 kts 39°
2026-05-06 22:06 42.77067 -71.56824 34794 ft 552 kts 39°
2026-05-06 22:06 42.82425 -71.49347 34779 ft 551 kts 40°
2026-05-06 22:07 42.87746 -71.41903 34788 ft 550 kts 40°
2026-05-06 22:07 42.93092 -71.34407 34776 ft 551 kts 40°
2026-05-06 22:08 42.98439 -71.26888 34776 ft 551 kts 40°
2026-05-06 22:08 43.03772 -71.19368 34787 ft 551 kts 40°
2026-05-06 22:09 43.09062 -71.11890 34796 ft 551 kts 40°
2026-05-06 22:09 43.14416 -71.04300 34770 ft 551 kts 41°
2026-05-06 22:10 43.19653 -70.96856 34781 ft 550 kts 41°
2026-05-06 22:10 43.24949 -70.89308 34783 ft 550 kts 41°
2026-05-06 22:11 43.30252 -70.81731 34771 ft 549 kts 41°
2026-05-06 22:11 43.35527 -70.74173 34808 ft 549 kts 41°
2026-05-06 22:12 43.40795 -70.66605 34798 ft 549 kts 41°
2026-05-06 22:12 43.46013 -70.59080 34765 ft 532 kts 41°
2026-05-06 22:13 43.51069 -70.51770 34813 ft 526 kts 42°
2026-05-06 22:13 43.56130 -70.44453 34786 ft 528 kts 42°
2026-05-06 22:14 43.61159 -70.37154 34781 ft 516 kts 42°
2026-05-06 22:14 43.66033 -70.30051 34799 ft 508 kts 42°
2026-05-06 22:15 43.70859 -70.23016 34803 ft 508 kts 43°
2026-05-06 22:15 43.75727 -70.15901 34802 ft 509 kts 43°
2026-05-06 22:16 43.80588 -70.08773 34834 ft 509 kts 43°
2026-05-06 22:16 43.85452 -70.01623 34850 ft 512 kts 44°
2026-05-06 22:17 43.90359 -69.94396 34850 ft 526 kts 44°
2026-05-06 22:17 43.95400 -69.86950 34852 ft 539 kts 44°
2026-05-06 22:18 44.00589 -69.79260 34832 ft 549 kts 45°
2026-05-06 22:18 44.04921 -69.72817 34816 ft 547 kts 45°
2026-05-06 22:19 44.10107 -69.65087 34820 ft 545 kts 45°
2026-05-06 22:19 44.15272 -69.57374 34837 ft 544 kts 45°
2026-05-06 22:20 44.20432 -69.49647 34802 ft 543 kts 46°
2026-05-06 22:20 44.25558 -69.41948 34821 ft 542 kts 46°
2026-05-06 22:21 44.30663 -69.34262 34827 ft 543 kts 46°
2026-05-06 22:21 44.35806 -69.26496 34824 ft 545 kts 46°
2026-05-06 22:22 44.40945 -69.18715 34815 ft 542 kts 46°
2026-05-06 22:22 44.43477 -69.14871 34813 ft 528 kts 47°
2026-05-06 22:22 44.45944 -69.11124 34792 ft 513 kts 48°
2026-05-06 22:23 44.48299 -69.07542 34788 ft 499 kts 48°
2026-05-06 22:23 44.50653 -69.03955 34821 ft 500 kts 48°
2026-05-06 22:23 44.55335 -68.96808 34807 ft 500 kts 48°
2026-05-06 22:24 44.60017 -68.89642 34824 ft 499 kts 49°
2026-05-06 22:24 44.64694 -68.82467 34814 ft 498 kts 49°
2026-05-06 22:25 44.69357 -68.75294 34815 ft 496 kts 49°
2026-05-06 22:25 44.74008 -68.68121 34787 ft 495 kts 49°
2026-05-06 22:26 44.78609 -68.61008 34807 ft 494 kts 49°
2026-05-06 22:26 44.83240 -68.53830 34822 ft 494 kts 49°
2026-05-06 22:27 44.87864 -68.46643 34830 ft 495 kts 49°
2026-05-06 22:27 44.92496 -68.39425 34843 ft 497 kts 49°
2026-05-06 22:28 44.97109 -68.32218 34835 ft 498 kts 49°
2026-05-06 22:28 45.01747 -68.24955 34829 ft 498 kts 49°
2026-05-06 22:29 45.06389 -68.17665 34842 ft 498 kts 49°
2026-05-06 22:29 45.11011 -68.10388 34840 ft 498 kts 49°
2026-05-06 22:30 45.15649 -68.03066 34837 ft 499 kts 50°
2026-05-06 22:30 45.20239 -67.95802 34834 ft 499 kts 50°
2026-05-06 22:31 45.24833 -67.88510 34843 ft 499 kts 50°
2026-05-06 22:31 45.29470 -67.81131 34841 ft 498 kts 50°
2026-05-06 22:32 45.34073 -67.73745 34843 ft 499 kts 52°
2026-05-06 22:32 45.38264 -67.65874 34878 ft 499 kts 56°
2026-05-06 22:33 45.42322 -67.57896 34853 ft 501 kts 57°
2026-05-06 22:33 45.46425 -67.49831 34859 ft 503 kts 56°
2026-05-06 22:34 45.50553 -67.41758 34858 ft 504 kts 56°
2026-05-06 22:34 45.54680 -67.33691 34851 ft 504 kts 56°
2026-05-06 22:35 45.58815 -67.25591 34861 ft 504 kts 56°
2026-05-06 22:35 45.62934 -67.17494 34860 ft 503 kts 56°
2026-05-06 22:36 45.67041 -67.09394 34843 ft 502 kts 56°
2026-05-06 22:36 45.71127 -67.01313 34849 ft 501 kts 56°
2026-05-06 22:37 45.75132 -66.93368 34868 ft 500 kts 56°
2026-05-06 22:37 45.79197 -66.85284 34867 ft 499 kts 56°
2026-05-06 22:38 45.83251 -66.77198 34880 ft 500 kts 56°
2026-05-06 22:38 45.87310 -66.69076 34869 ft 501 kts 56°
2026-05-06 22:39 45.91373 -66.60924 34884 ft 502 kts 57°
2026-05-06 22:39 45.95437 -66.52746 34887 ft 503 kts 57°
2026-05-06 22:40 45.99493 -66.44563 34888 ft 505 kts 57°
2026-05-06 22:40 46.03565 -66.36322 34835 ft 506 kts 57°
2026-05-06 22:41 46.09671 -66.23919 34880 ft 505 kts 57°
2026-05-06 22:42 46.13707 -66.15692 34898 ft 505 kts 57°
2026-05-06 22:42 46.17758 -66.07409 34883 ft 505 kts 57°
2026-05-06 22:43 46.21734 -65.99255 34890 ft 504 kts 57°
2026-05-06 22:43 46.25765 -65.90964 34886 ft 503 kts 57°
2026-05-06 22:44 46.29781 -65.82682 34883 ft 502 kts 57°
2026-05-06 22:44 46.33754 -65.74460 34892 ft 501 kts 57°
2026-05-06 22:45 46.37744 -65.66181 34891 ft 501 kts 57°
2026-05-06 22:45 46.41723 -65.57899 34857 ft 500 kts 57°
2026-05-06 22:46 46.45693 -65.49614 34879 ft 500 kts 57°
2026-05-06 22:46 46.49662 -65.41303 34896 ft 500 kts 57°
2026-05-06 22:47 46.53622 -65.32990 34896 ft 500 kts 57°
2026-05-06 22:47 46.57571 -65.24673 34909 ft 500 kts 57°
2026-05-06 22:48 46.61523 -65.16323 34883 ft 501 kts 57°
2026-05-06 22:48 46.65442 -65.08021 34885 ft 501 kts 57°
2026-05-06 22:49 46.69347 -64.99723 34897 ft 501 kts 57°
2026-05-06 22:49 46.73283 -64.91335 34891 ft 502 kts 58°
2026-05-06 22:50 46.77218 -64.82921 34883 ft 502 kts 58°
2026-05-06 22:50 46.81150 -64.74489 34877 ft 501 kts 57°
2026-05-06 22:51 46.85043 -64.66118 34877 ft 500 kts 57°
2026-05-06 22:51 46.88943 -64.57704 34873 ft 499 kts 57°
2026-05-06 22:52 46.92837 -64.49278 34871 ft 498 kts 58°
2026-05-06 22:52 46.96706 -64.40882 34877 ft 497 kts 58°
2026-05-06 22:53 47.00554 -64.32504 34877 ft 496 kts 58°
2026-05-06 22:53 47.04383 -64.24142 34880 ft 497 kts 58°
2026-05-06 22:54 47.08236 -64.15703 34886 ft 498 kts 58°
2026-05-06 22:54 47.12089 -64.07236 34894 ft 499 kts 58°
2026-05-06 22:55 47.15919 -63.98796 34891 ft 501 kts 58°
2026-05-06 22:55 47.19760 -63.90305 34891 ft 502 kts 58°
2026-05-06 22:56 47.23628 -63.81730 34898 ft 504 kts 58°
2026-05-06 22:56 47.27501 -63.73116 34895 ft 504 kts 58°
2026-05-06 22:57 47.31373 -63.64474 34912 ft 505 kts 58°
2026-05-06 22:57 47.35237 -63.55826 34898 ft 505 kts 58°
2026-05-06 22:58 47.39077 -63.47205 34902 ft 505 kts 58°
2026-05-06 22:58 47.42927 -63.38533 34902 ft 505 kts 58°
2026-05-06 22:59 47.46772 -63.29845 34918 ft 505 kts 58°
2026-05-06 22:59 47.50611 -63.21141 34902 ft 505 kts 58°
2026-05-06 23:00 47.54449 -63.12415 34891 ft 505 kts 58°
2026-05-06 23:00 47.58272 -63.03694 34902 ft 505 kts 58°
2026-05-06 23:01 47.62050 -62.95048 34923 ft 505 kts 58°
2026-05-06 23:01 47.65845 -62.86335 34915 ft 505 kts 58°
2026-05-06 23:02 47.69010 -62.79048 34922 ft 505 kts 58°
2026-05-06 23:02 47.72813 -62.70266 34920 ft 505 kts 58°
2026-05-06 23:03 47.77229 -62.60030 34919 ft 505 kts 58°
2026-05-06 23:03 47.80403 -62.52651 34914 ft 505 kts 58°
2026-05-06 23:04 47.84185 -62.43834 34925 ft 505 kts 58°
2026-05-06 23:04 47.87961 -62.35001 34926 ft 505 kts 59°
2026-05-06 23:05 47.91728 -62.26157 34910 ft 505 kts 58°
2026-05-06 23:05 47.95457 -62.17377 34917 ft 504 kts 58°
2026-05-06 23:06 47.99198 -62.08540 34931 ft 503 kts 58°
2026-05-06 23:06 48.02899 -61.99767 34933 ft 503 kts 58°
2026-05-06 23:07 48.06621 -61.90917 34934 ft 502 kts 58°
2026-05-06 23:07 48.10332 -61.82065 34928 ft 502 kts 58°
2026-05-06 23:08 48.14042 -61.73186 34935 ft 502 kts 58°
2026-05-06 23:08 48.17740 -61.64305 34938 ft 502 kts 58°
2026-05-06 23:09 48.21413 -61.55457 34949 ft 503 kts 58°
2026-05-06 23:09 48.25111 -61.46518 34943 ft 504 kts 58°
2026-05-06 23:10 48.28800 -61.37570 34940 ft 504 kts 58°
2026-05-06 23:10 48.32480 -61.28616 34943 ft 503 kts 58°
2026-05-06 23:11 48.36154 -61.19646 34953 ft 503 kts 58°
2026-05-06 23:11 48.39795 -61.10729 34942 ft 503 kts 58°
2026-05-06 23:12 48.43444 -61.01760 34949 ft 502 kts 58°
2026-05-06 23:12 48.47047 -60.92875 34948 ft 501 kts 58°
2026-05-06 23:13 48.50673 -60.83903 34956 ft 500 kts 58°
2026-05-06 23:13 48.54291 -60.74920 34951 ft 500 kts 58°
2026-05-06 23:14 48.57898 -60.65936 34959 ft 500 kts 58°
2026-05-06 23:14 48.61483 -60.56977 34963 ft 500 kts 58°
2026-05-06 23:15 48.65084 -60.47947 34953 ft 500 kts 58°
2026-05-06 23:15 48.68671 -60.38920 34961 ft 500 kts 58°
2026-05-06 23:16 48.72250 -60.29885 34980 ft 499 kts 58°
2026-05-06 23:16 48.75816 -60.20852 34978 ft 499 kts 58°
2026-05-06 23:17 48.79366 -60.11826 34984 ft 498 kts 58°
2026-05-06 23:17 48.82908 -60.02793 34975 ft 497 kts 58°
2026-05-06 23:18 48.86381 -59.93906 34981 ft 497 kts 58°
2026-05-06 23:18 48.89900 -59.84868 34980 ft 496 kts 59°
2026-05-06 23:19 48.93410 -59.75823 34996 ft 496 kts 59°
2026-05-06 23:19 48.96920 -59.66747 34986 ft 497 kts 59°
2026-05-06 23:20 49.00418 -59.57673 34960 ft 497 kts 58°
2026-05-06 23:20 49.03890 -59.48633 34971 ft 497 kts 58°
2026-05-06 23:21 49.07377 -59.39523 34993 ft 495 kts 58°
2026-05-06 23:21 49.10840 -59.30445 34977 ft 494 kts 59°
2026-05-06 23:22 49.14263 -59.21441 34978 ft 493 kts 59°
2026-05-06 23:22 49.17696 -59.12379 34979 ft 491 kts 59°
2026-05-06 23:23 49.21108 -59.03341 34997 ft 490 kts 59°
2026-05-06 23:23 49.24488 -58.94359 34995 ft 490 kts 59°
2026-05-06 23:24 49.27892 -58.85282 34991 ft 491 kts 59°
2026-05-06 23:24 49.31268 -58.76246 35000 ft 492 kts 59°
2026-05-06 23:25 49.34666 -58.67121 35001 ft 493 kts 59°
2026-05-06 23:25 49.38060 -58.57975 34986 ft 492 kts 59°
2026-05-06 23:26 49.41437 -58.48840 34985 ft 491 kts 59°
2026-05-06 23:26 49.44802 -58.39707 34992 ft 489 kts 59°
2026-05-06 23:27 49.48127 -58.30652 34990 ft 488 kts 59°
2026-05-06 23:27 49.51451 -58.21568 34993 ft 486 kts 59°
2026-05-06 23:28 49.54755 -58.12506 34994 ft 485 kts 59°
2026-05-06 23:28 49.58042 -58.03460 35010 ft 484 kts 59°
2026-05-06 23:29 49.61284 -57.94507 35014 ft 484 kts 59°
2026-05-06 23:29 49.64566 -57.85413 35029 ft 485 kts 59°
2026-05-06 23:30 49.67854 -57.76269 35024 ft 488 kts 60°
2026-05-06 23:30 49.71148 -57.67077 34987 ft 489 kts 60°
2026-05-06 23:31 49.74438 -57.57859 35022 ft 487 kts 59°
2026-05-06 23:31 49.77678 -57.48751 35030 ft 485 kts 60°
2026-05-06 23:32 49.80918 -57.39609 35022 ft 482 kts 60°
2026-05-06 23:32 49.84135 -57.30502 35018 ft 480 kts 60°
2026-05-06 23:33 49.87326 -57.21437 35023 ft 478 kts 60°
2026-05-06 23:33 49.90490 -57.12416 35031 ft 477 kts 60°
2026-05-06 23:34 49.93659 -57.03351 35037 ft 478 kts 60°
2026-05-06 23:34 49.96803 -56.94324 35034 ft 480 kts 60°
2026-05-06 23:35 49.99961 -56.85222 35038 ft 482 kts 60°
2026-05-06 23:35 50.03134 -56.76049 35028 ft 483 kts 60°
2026-05-06 23:36 50.06312 -56.66825 35016 ft 484 kts 60°
2026-05-06 23:36 50.09483 -56.57585 35027 ft 483 kts 60°
2026-05-06 23:37 50.12640 -56.48353 35019 ft 482 kts 60°
2026-05-06 23:37 50.15760 -56.39198 35020 ft 479 kts 60°
2026-05-06 23:38 50.18878 -56.30018 35021 ft 477 kts 60°
2026-05-06 23:38 50.21974 -56.20867 35026 ft 476 kts 60°
2026-05-06 23:39 50.25039 -56.11777 35028 ft 475 kts 60°
2026-05-06 23:39 50.28120 -56.02604 35036 ft 476 kts 60°
2026-05-06 23:40 50.31168 -55.93499 35034 ft 477 kts 60°
2026-05-06 23:40 50.34244 -55.84274 35045 ft 478 kts 60°
2026-05-06 23:41 50.37302 -55.75071 35040 ft 479 kts 60°
2026-05-06 23:41 50.40376 -55.65787 35036 ft 480 kts 60°
2026-05-06 23:42 50.43444 -55.56483 35039 ft 479 kts 60°
2026-05-06 23:42 50.46490 -55.47211 35049 ft 476 kts 60°
2026-05-06 23:43 50.49495 -55.38031 35042 ft 473 kts 60°
2026-05-06 23:43 50.52495 -55.28834 35045 ft 471 kts 60°
2026-05-06 23:44 50.55473 -55.19671 35041 ft 469 kts 60°
2026-05-06 23:44 50.57939 -55.12058 35053 ft 469 kts 60°
2026-05-06 23:45 50.61384 -55.01384 35056 ft 470 kts 60°
2026-05-06 23:45 50.63835 -54.93763 35060 ft 472 kts 61°
2026-05-06 23:46 50.66783 -54.84563 35059 ft 474 kts 61°
2026-05-06 23:46 50.69760 -54.75236 35070 ft 475 kts 61°
2026-05-06 23:47 50.72736 -54.65879 35073 ft 477 kts 61°
2026-05-06 23:47 50.75688 -54.56561 35074 ft 477 kts 61°
2026-05-06 23:48 50.78648 -54.47182 35064 ft 477 kts 61°
2026-05-06 23:48 50.81601 -54.37789 35073 ft 476 kts 61°
2026-05-06 23:49 50.84539 -54.28410 35070 ft 475 kts 61°
2026-05-06 23:49 50.87460 -54.19046 35083 ft 473 kts 61°
2026-05-06 23:50 50.90353 -54.09742 35078 ft 473 kts 61°
2026-05-06 23:50 50.94671 -53.95783 35072 ft 473 kts 62°
2026-05-06 23:51 50.97559 -53.86404 35081 ft 473 kts 62°
2026-05-06 23:51 51.00439 -53.77017 35095 ft 474 kts 62°
2026-05-06 23:52 51.03323 -53.67575 35078 ft 475 kts 62°
2026-05-06 23:52 51.06202 -53.58116 35076 ft 476 kts 62°
2026-05-06 23:53 51.09079 -53.48626 35092 ft 475 kts 62°
2026-05-06 23:53 51.11918 -53.39220 35081 ft 474 kts 62°
2026-05-06 23:54 51.14760 -53.29777 35078 ft 472 kts 62°
2026-05-06 23:54 51.17566 -53.20346 35081 ft 470 kts 63°
2026-05-06 23:55 51.20205 -53.10815 35079 ft 469 kts 64°
2026-05-06 23:55 51.22783 -53.01275 35089 ft 469 kts 64°
2026-05-06 23:56 51.24912 -52.93412 35107 ft 469 kts 64°
2026-05-06 23:56 51.27949 -52.82231 35097 ft 471 kts 64°
2026-05-06 23:57 51.30560 -52.72600 35102 ft 473 kts 64°
2026-05-06 23:57 51.33158 -52.62977 35106 ft 475 kts 64°
2026-05-06 23:58 51.35772 -52.53247 35104 ft 476 kts 64°
2026-05-06 23:58 51.38386 -52.43474 35110 ft 473 kts 64°
2026-05-06 23:59 51.40945 -52.33859 35091 ft 465 kts 64°
2026-05-06 23:59 51.43468 -52.24354 35118 ft 466 kts 64°
2026-05-07 00:00 51.46006 -52.14753 35114 ft 467 kts 64°
2026-05-07 00:00 51.48539 -52.05126 35114 ft 468 kts 64°
2026-05-07 00:01 51.51037 -51.95590 35124 ft 469 kts 64°
2026-05-07 00:01 51.53564 -51.85905 35105 ft 470 kts 64°
2026-05-07 00:02 51.56087 -51.76192 35110 ft 470 kts 64°
2026-05-07 00:02 51.58594 -51.66499 35114 ft 470 kts 65°
2026-05-07 00:03 51.61080 -51.56844 35110 ft 470 kts 65°
2026-05-07 00:03 51.63578 -51.47104 35115 ft 469 kts 64°
2026-05-07 00:04 51.66055 -51.37400 35125 ft 467 kts 64°
2026-05-07 00:04 51.68493 -51.27810 35121 ft 463 kts 64°
2026-05-07 00:05 51.70927 -51.18193 35118 ft 460 kts 64°
2026-05-07 00:05 51.73335 -51.08639 35115 ft 458 kts 64°
2026-05-07 00:06 51.75696 -50.99234 35113 ft 458 kts 64°
2026-05-07 00:06 51.78090 -50.89658 35132 ft 458 kts 65°
2026-05-07 00:07 51.80477 -50.80069 35130 ft 460 kts 65°
2026-05-07 00:07 51.82851 -50.70491 35115 ft 462 kts 65°
2026-05-07 00:08 51.85240 -50.60807 35116 ft 464 kts 65°
2026-05-07 00:08 51.87630 -50.51075 35122 ft 465 kts 65°
2026-05-07 00:09 51.90008 -50.41349 35130 ft 466 kts 65°
2026-05-07 00:09 51.92385 -50.31581 35131 ft 465 kts 65°
2026-05-07 00:10 51.94732 -50.21896 35107 ft 463 kts 65°
2026-05-07 00:10 51.97074 -50.12192 35119 ft 460 kts 65°
2026-05-07 00:11 51.99401 -50.02503 35118 ft 458 kts 66°
2026-05-07 00:11 52.01158 -49.92696 35140 ft 459 kts 74°
2026-05-07 00:12 52.02578 -49.82571 35121 ft 460 kts 75°
2026-05-07 00:12 52.03986 -49.72418 35128 ft 461 kts 75°
2026-05-07 00:13 52.05412 -49.62271 35134 ft 463 kts 75°
2026-05-07 00:13 52.06856 -49.52030 35136 ft 465 kts 75°
2026-05-07 00:14 52.08290 -49.41818 35126 ft 466 kts 75°
2026-05-07 00:14 52.09729 -49.31499 35137 ft 466 kts 75°
2026-05-07 00:15 52.11156 -49.21185 35131 ft 465 kts 75°
2026-05-07 00:15 52.12558 -49.10981 35129 ft 464 kts 75°
2026-05-07 00:16 52.13955 -49.00737 35131 ft 462 kts 75°
2026-05-07 00:16 52.15328 -48.90609 35132 ft 461 kts 75°
2026-05-07 00:17 52.16692 -48.80473 35132 ft 460 kts 75°
2026-05-07 00:17 52.18052 -48.70296 35139 ft 459 kts 75°
2026-05-07 00:18 52.19398 -48.60153 35139 ft 459 kts 75°
2026-05-07 00:18 52.20745 -48.49932 35146 ft 460 kts 75°
2026-05-07 00:19 52.22084 -48.39695 35140 ft 461 kts 75°
2026-05-07 00:19 52.23408 -48.29501 35144 ft 461 kts 75°
2026-05-07 00:20 52.24733 -48.19224 35147 ft 462 kts 75°
2026-05-07 00:20 52.26042 -48.08999 35142 ft 462 kts 75°
2026-05-07 00:21 52.27340 -47.98780 35142 ft 462 kts 75°
2026-05-07 00:21 52.28631 -47.88543 35141 ft 462 kts 76°
2026-05-07 00:22 52.29921 -47.78234 35147 ft 461 kts 75°
2026-05-07 00:22 52.31192 -47.67998 35142 ft 461 kts 75°
2026-05-07 00:23 52.32459 -47.57723 35148 ft 460 kts 75°
2026-05-07 00:23 52.33713 -47.47471 35148 ft 459 kts 75°
2026-05-07 00:24 52.34951 -47.37276 35145 ft 458 kts 76°
2026-05-07 00:24 52.35977 -47.28768 35149 ft 457 kts 76°
2026-05-07 00:25 52.37200 -47.18550 35154 ft 457 kts 76°
2026-05-07 00:25 52.38416 -47.08314 35147 ft 457 kts 76°
2026-05-07 00:26 52.39604 -46.98239 35153 ft 457 kts 76°
2026-05-07 00:26 52.40799 -46.88019 35152 ft 457 kts 76°
2026-05-07 00:27 52.41992 -46.77733 35153 ft 457 kts 76°
2026-05-07 00:27 52.43173 -46.67477 35167 ft 458 kts 75°
2026-05-07 00:28 52.44338 -46.57274 35160 ft 458 kts 76°
2026-05-07 00:28 52.45508 -46.46938 35157 ft 458 kts 76°
2026-05-07 00:29 52.46655 -46.36728 35157 ft 457 kts 76°
2026-05-07 00:30 52.48931 -46.16210 35162 ft 456 kts 76°
2026-05-07 00:30 52.50055 -46.05948 35169 ft 456 kts 76°
2026-05-07 00:31 52.51161 -45.95764 35160 ft 456 kts 76°
2026-05-07 00:31 52.52267 -45.85492 35167 ft 456 kts 76°
2026-05-07 00:32 52.53358 -45.75284 35165 ft 455 kts 76°
2026-05-07 00:32 52.54445 -45.65014 35165 ft 455 kts 76°
2026-05-07 00:33 52.55516 -45.54817 35189 ft 454 kts 76°
2026-05-07 00:33 52.56583 -45.44561 35174 ft 455 kts 76°
2026-05-07 00:34 52.57641 -45.34299 35168 ft 455 kts 76°
2026-05-07 00:34 52.58686 -45.24077 35172 ft 455 kts 76°
2026-05-07 00:35 52.59726 -45.13814 35173 ft 455 kts 76°
2026-05-07 00:35 52.60759 -45.03531 35177 ft 455 kts 76°
2026-05-07 00:36 52.61775 -44.93323 35178 ft 455 kts 76°
2026-05-07 00:36 52.62785 -44.83074 35182 ft 456 kts 76°
2026-05-07 00:37 52.63792 -44.72761 35183 ft 456 kts 76°
2026-05-07 00:37 52.64787 -44.62477 35182 ft 456 kts 76°
2026-05-07 00:38 52.65779 -44.52135 35183 ft 456 kts 77°
2026-05-07 00:38 52.66760 -44.41795 35185 ft 456 kts 77°
2026-05-07 00:39 52.67728 -44.31508 35194 ft 456 kts 76°
2026-05-07 00:39 52.68693 -44.21143 35188 ft 457 kts 76°
2026-05-07 00:40 52.69650 -44.10765 35198 ft 456 kts 76°
2026-05-07 00:40 52.70591 -44.00457 35189 ft 456 kts 76°
2026-05-07 00:41 52.71520 -43.90174 35190 ft 456 kts 76°
2026-05-07 00:41 52.72447 -43.79814 35195 ft 455 kts 77°
2026-05-07 00:42 52.73362 -43.69481 35201 ft 455 kts 76°
2026-05-07 00:42 52.74263 -43.59204 35195 ft 454 kts 76°
2026-05-07 00:43 52.75158 -43.48885 35196 ft 453 kts 76°
2026-05-07 00:43 52.76038 -43.38637 35202 ft 452 kts 76°
2026-05-07 00:44 52.76915 -43.28322 35200 ft 452 kts 77°
2026-05-07 00:44 52.77776 -43.18083 35231 ft 451 kts 76°
2026-05-07 00:45 52.78632 -43.07793 35210 ft 451 kts 76°
2026-05-07 00:45 52.79471 -42.97599 35205 ft 451 kts 76°
2026-05-07 00:46 52.80302 -42.87381 35206 ft 450 kts 76°
2026-05-07 00:46 52.81129 -42.77107 35207 ft 449 kts 76°
2026-05-07 00:47 52.81941 -42.66910 35212 ft 449 kts 76°
2026-05-07 00:47 52.82750 -42.56652 35232 ft 452 kts 76°
2026-05-07 00:48 52.83159 -42.51443 35412 ft 456 kts 76°
2026-05-07 00:48 52.83559 -42.46299 35840 ft 455 kts 77°
2026-05-07 00:48 52.83957 -42.41118 36354 ft 451 kts 77°
2026-05-07 00:48 52.84348 -42.35978 36870 ft 446 kts 77°
2026-05-07 00:49 52.84734 -42.30893 37262 ft 446 kts 77°
2026-05-07 00:49 52.85127 -42.25735 37197 ft 454 kts 77°
2026-05-07 00:49 52.85914 -42.15342 37213 ft 458 kts 77°
2026-05-07 00:50 52.86684 -42.04923 37204 ft 454 kts 77°
2026-05-07 00:50 52.87432 -41.94677 37224 ft 449 kts 77°
2026-05-07 00:51 52.88172 -41.84478 37214 ft 449 kts 78°
2026-05-07 00:51 52.88911 -41.74174 37221 ft 450 kts 78°
2026-05-07 00:52 52.89639 -41.63890 37214 ft 451 kts 78°
2026-05-07 00:52 52.90362 -41.53532 37210 ft 452 kts 78°
2026-05-07 00:53 52.91077 -41.43160 37226 ft 452 kts 78°
2026-05-07 00:53 52.91778 -41.32826 37206 ft 446 kts 78°
2026-05-07 00:54 52.92449 -41.22768 37205 ft 439 kts 78°
2026-05-07 00:54 52.93126 -41.12622 37226 ft 444 kts 78°
2026-05-07 00:55 52.93797 -41.02399 37219 ft 445 kts 78°
2026-05-07 00:55 52.94446 -40.92329 37212 ft 445 kts 78°
2026-05-07 00:56 52.95095 -40.82120 37215 ft 444 kts 78°
2026-05-07 00:56 52.95734 -40.71927 37214 ft 443 kts 78°
2026-05-07 00:57 52.96362 -40.61787 37216 ft 440 kts 78°
2026-05-07 00:57 52.96974 -40.51750 37233 ft 438 kts 78°
2026-05-07 00:58 52.97580 -40.41690 37218 ft 437 kts 78°
2026-05-07 00:58 52.98180 -40.31607 37222 ft 438 kts 78°
2026-05-07 00:59 52.99061 -40.16509 37227 ft 442 kts 78°
2026-05-07 01:00 52.99644 -40.06343 37228 ft 446 kts 78°
2026-05-07 01:00 53.00464 -39.96261 37220 ft 439 kts 71°
2026-05-07 01:01 53.01891 -39.86380 37228 ft 437 kts 70°
2026-05-07 01:01 53.03335 -39.76603 37219 ft 437 kts 70°
2026-05-07 01:02 53.04521 -39.68419 37215 ft 437 kts 70°
2026-05-07 01:02 53.05930 -39.58536 37223 ft 441 kts 71°
2026-05-07 01:03 53.07332 -39.48586 37241 ft 444 kts 71°
2026-05-07 01:03 53.08734 -39.38534 37229 ft 444 kts 71°
2026-05-07 01:04 53.10122 -39.28513 37213 ft 444 kts 71°
2026-05-07 01:04 53.11503 -39.18482 37214 ft 442 kts 71°
2026-05-07 01:05 53.12860 -39.08571 37209 ft 441 kts 71°
2026-05-07 01:05 53.14203 -38.98693 37212 ft 440 kts 71°
2026-05-07 01:06 53.15551 -38.88720 37207 ft 441 kts 71°
2026-05-07 01:06 53.16885 -38.78788 37218 ft 442 kts 71°
2026-05-07 01:07 53.18219 -38.68772 37210 ft 443 kts 71°
2026-05-07 01:07 53.19552 -38.58701 37246 ft 443 kts 72°
2026-05-07 01:08 53.20868 -38.48678 37214 ft 444 kts 72°
2026-05-07 01:08 53.22182 -38.38603 37208 ft 444 kts 72°
2026-05-07 01:09 53.23485 -38.28548 37205 ft 443 kts 72°
2026-05-07 01:09 53.24771 -38.18541 37214 ft 442 kts 72°
2026-05-07 01:10 53.26055 -38.08492 37199 ft 441 kts 72°
2026-05-07 01:10 53.27310 -37.98595 37205 ft 440 kts 72°
2026-05-07 01:11 53.28570 -37.88588 37203 ft 439 kts 72°
2026-05-07 01:11 53.29816 -37.78610 37200 ft 437 kts 72°
2026-05-07 01:12 53.31052 -37.68659 37203 ft 438 kts 72°
2026-05-07 01:12 53.32282 -37.58685 37201 ft 439 kts 72°
2026-05-07 01:13 53.33511 -37.48629 37228 ft 440 kts 72°
2026-05-07 01:13 53.34727 -37.38614 37207 ft 441 kts 72°
2026-05-07 01:14 53.35941 -37.28529 37200 ft 440 kts 72°
2026-05-07 01:14 53.37141 -37.18483 37194 ft 439 kts 72°
2026-05-07 01:15 53.38329 -37.08459 37193 ft 437 kts 72°
2026-05-07 01:15 53.39491 -36.98590 37204 ft 436 kts 73°
2026-05-07 01:16 53.40653 -36.88656 37199 ft 435 kts 73°
2026-05-07 01:16 53.41801 -36.78741 37191 ft 432 kts 73°
2026-05-07 01:17 53.42944 -36.68815 37192 ft 433 kts 73°
2026-05-07 01:17 53.44077 -36.58913 37192 ft 435 kts 73°
2026-05-07 01:18 53.45210 -36.48918 37194 ft 436 kts 73°
2026-05-07 01:18 53.46331 -36.38941 37214 ft 436 kts 73°
2026-05-07 01:19 53.47450 -36.28902 37199 ft 436 kts 73°
2026-05-07 01:19 53.48558 -36.18875 37173 ft 435 kts 73°
2026-05-07 01:20 53.49648 -36.08932 37180 ft 433 kts 73°
2026-05-07 01:20 53.50727 -35.99014 37181 ft 432 kts 73°
2026-05-07 01:21 53.51793 -35.89140 37191 ft 432 kts 73°
2026-05-07 01:21 53.52863 -35.79164 37184 ft 434 kts 74°
2026-05-07 01:22 53.53919 -35.69215 37193 ft 433 kts 74°
2026-05-07 01:22 53.54971 -35.59223 37185 ft 432 kts 74°
2026-05-07 01:23 53.56010 -35.49264 37172 ft 431 kts 74°
2026-05-07 01:23 53.57032 -35.39392 37172 ft 430 kts 74°
2026-05-07 01:24 53.58051 -35.29469 37198 ft 430 kts 74°
2026-05-07 01:24 53.59067 -35.19495 37182 ft 431 kts 74°
2026-05-07 01:25 53.60073 -35.09523 37180 ft 431 kts 75°
2026-05-07 01:25 53.61058 -34.99678 37177 ft 431 kts 75°
2026-05-07 01:26 53.62046 -34.89704 37179 ft 431 kts 75°
2026-05-07 01:26 53.63026 -34.79736 37178 ft 430 kts 75°
2026-05-07 01:27 53.63992 -34.69821 37182 ft 431 kts 75°
2026-05-07 01:27 53.64959 -34.59812 37173 ft 431 kts 75°
2026-05-07 01:28 53.65914 -34.49822 37171 ft 431 kts 75°
2026-05-07 01:28 53.66860 -34.39835 37156 ft 431 kts 75°
2026-05-07 01:29 53.67793 -34.29896 37170 ft 430 kts 75°
2026-05-07 01:29 53.68722 -34.19912 37182 ft 431 kts 75°
2026-05-07 01:30 53.69649 -34.09872 37168 ft 432 kts 75°
2026-05-07 01:30 53.70558 -33.99911 37167 ft 433 kts 75°
2026-05-07 01:31 53.71463 -33.89903 37160 ft 433 kts 75°
2026-05-07 01:31 53.72364 -33.79834 37161 ft 433 kts 76°
2026-05-07 01:32 53.73255 -33.69788 37162 ft 433 kts 76°
2026-05-07 01:32 53.74138 -33.59720 37154 ft 433 kts 76°
2026-05-07 01:33 53.75008 -33.49712 37158 ft 432 kts 76°
2026-05-07 01:33 53.75875 -33.39635 37158 ft 432 kts 76°
2026-05-07 01:34 53.76726 -33.29642 37155 ft 431 kts 76°
2026-05-07 01:34 53.77575 -33.19571 37155 ft 431 kts 76°
2026-05-07 01:35 53.78409 -33.09586 37181 ft 431 kts 76°
2026-05-07 01:35 53.79236 -32.99569 37160 ft 431 kts 76°
2026-05-07 01:36 53.80055 -32.89550 37142 ft 431 kts 76°
2026-05-07 01:36 53.80870 -32.79469 37150 ft 431 kts 77°
2026-05-07 01:37 53.81672 -32.69443 37151 ft 431 kts 77°
2026-05-07 01:37 53.82465 -32.59418 37134 ft 431 kts 77°
2026-05-07 01:38 53.83255 -32.49328 37149 ft 432 kts 77°
2026-05-07 01:38 53.84039 -32.39203 37147 ft 434 kts 77°
2026-05-07 01:39 53.84812 -32.29094 37140 ft 435 kts 77°
2026-05-07 01:39 53.85584 -32.18885 37140 ft 436 kts 77°
2026-05-07 01:40 53.86346 -32.08690 37140 ft 436 kts 77°
2026-05-07 01:40 53.87089 -31.98626 37132 ft 436 kts 77°
2026-05-07 01:41 53.87835 -31.88419 37133 ft 436 kts 77°
2026-05-07 01:41 53.88447 -31.79942 37131 ft 435 kts 78°
2026-05-07 01:42 53.89177 -31.69724 37129 ft 435 kts 78°
2026-05-07 01:42 53.89889 -31.59613 37128 ft 434 kts 78°
2026-05-07 01:43 53.90597 -31.49455 37123 ft 433 kts 78°
2026-05-07 01:43 53.91296 -31.39302 37145 ft 433 kts 78°
2026-05-07 01:44 53.91992 -31.29098 37134 ft 437 kts 78°
2026-05-07 01:44 53.92682 -31.18820 37132 ft 439 kts 79°
2026-05-07 01:45 53.93361 -31.08559 37130 ft 440 kts 79°
2026-05-07 01:45 53.94032 -30.98265 37115 ft 441 kts 79°
2026-05-07 01:46 53.94695 -30.87965 37113 ft 439 kts 79°
2026-05-07 01:46 53.95350 -30.77669 37120 ft 438 kts 79°
2026-05-07 01:47 53.95994 -30.67382 37117 ft 437 kts 79°
2026-05-07 01:47 53.96629 -30.57117 37116 ft 436 kts 79°
2026-05-07 01:48 53.97251 -30.46916 37121 ft 435 kts 79°
2026-05-07 01:48 53.97867 -30.36674 37113 ft 435 kts 80°
2026-05-07 01:49 53.98474 -30.26443 37130 ft 435 kts 80°
2026-05-07 01:49 53.99073 -30.16204 37129 ft 440 kts 80°
2026-05-07 01:50 53.99673 -30.05781 37128 ft 443 kts 80°
2026-05-07 01:50 54.00230 -29.95471 37098 ft 445 kts 81°
2026-05-07 01:51 54.00657 -29.84943 37101 ft 445 kts 82°
2026-05-07 01:51 54.01047 -29.74495 37097 ft 444 kts 82°
2026-05-07 01:52 54.01443 -29.63995 37104 ft 442 kts 82°
2026-05-07 01:52 54.01836 -29.53597 37101 ft 441 kts 82°
2026-05-07 01:53 54.02224 -29.43197 37105 ft 440 kts 82°
2026-05-07 01:53 54.02601 -29.32862 37097 ft 439 kts 82°
2026-05-07 01:54 54.02971 -29.22468 37105 ft 440 kts 83°
2026-05-07 01:54 54.03331 -29.12120 37132 ft 440 kts 83°
2026-05-07 01:55 54.03685 -29.01664 37107 ft 442 kts 83°
2026-05-07 01:55 54.04024 -28.91346 37100 ft 443 kts 83°
2026-05-07 01:56 54.04362 -28.80829 37098 ft 444 kts 83°
2026-05-07 01:56 54.04689 -28.70320 37093 ft 444 kts 83°
2026-05-07 01:57 54.05007 -28.59853 37091 ft 445 kts 83°
2026-05-07 01:57 54.05317 -28.49306 37100 ft 446 kts 84°
2026-05-07 01:58 54.05619 -28.38746 37091 ft 446 kts 84°
2026-05-07 01:58 54.05910 -28.28243 37086 ft 446 kts 84°
2026-05-07 01:59 54.06193 -28.17669 37087 ft 446 kts 84°
2026-05-07 01:59 54.06467 -28.07101 37086 ft 446 kts 84°
2026-05-07 02:00 54.06728 -27.96681 37089 ft 445 kts 84°
2026-05-07 02:00 54.06984 -27.86129 37087 ft 445 kts 84°
2026-05-07 02:01 54.07228 -27.75610 37082 ft 444 kts 84°
2026-05-07 02:01 54.07462 -27.65167 37078 ft 443 kts 85°
2026-05-07 02:02 54.07689 -27.54667 37078 ft 442 kts 85°
2026-05-07 02:02 54.07906 -27.44191 37071 ft 442 kts 85°
2026-05-07 02:03 54.08114 -27.33709 37084 ft 442 kts 85°
2026-05-07 02:03 54.08312 -27.23284 37080 ft 443 kts 85°
2026-05-07 02:04 54.08503 -27.12704 37081 ft 444 kts 85°
2026-05-07 02:04 54.08684 -27.02219 37079 ft 445 kts 85°
2026-05-07 02:05 54.08855 -26.91731 37077 ft 446 kts 85°
2026-05-07 02:05 54.09018 -26.81185 37093 ft 447 kts 85°
2026-05-07 02:06 54.09174 -26.70538 37078 ft 448 kts 86°
2026-05-07 02:06 54.09318 -26.59962 37077 ft 449 kts 86°
2026-05-07 02:07 54.09455 -26.49296 37066 ft 449 kts 86°
2026-05-07 02:07 54.09641 -26.33366 37064 ft 448 kts 86°
2026-05-07 02:08 54.09753 -26.22782 37075 ft 447 kts 86°
2026-05-07 02:08 54.09857 -26.12142 37060 ft 447 kts 87°
2026-05-07 02:09 54.09951 -26.01601 37058 ft 447 kts 87°
2026-05-07 02:09 54.10035 -25.91084 37059 ft 447 kts 87°
2026-05-07 02:10 54.10110 -25.80551 37059 ft 447 kts 87°
2026-05-07 02:10 54.10176 -25.69940 37057 ft 447 kts 87°
2026-05-07 02:11 54.10233 -25.59274 37066 ft 448 kts 88°
2026-05-07 02:11 54.10281 -25.48684 37047 ft 450 kts 88°
2026-05-07 02:12 54.10319 -25.37982 37052 ft 451 kts 88°
2026-05-07 02:12 54.10348 -25.27331 37047 ft 452 kts 88°
2026-05-07 02:13 54.10367 -25.16599 37051 ft 452 kts 88°
2026-05-07 02:13 54.10377 -25.05857 37062 ft 453 kts 89°
2026-05-07 02:14 54.10378 -24.95185 37047 ft 453 kts 89°
2026-05-07 02:14 54.10369 -24.84493 37043 ft 453 kts 89°
2026-05-07 02:15 54.10350 -24.73734 37038 ft 453 kts 89°
2026-05-07 02:15 54.10322 -24.62978 37041 ft 453 kts 89°
2026-05-07 02:16 54.10284 -24.52304 37039 ft 452 kts 89°
2026-05-07 02:16 54.10237 -24.41550 37041 ft 452 kts 89°
2026-05-07 02:17 54.10180 -24.30798 37030 ft 453 kts 90°
2026-05-07 02:17 54.10114 -24.20073 37024 ft 452 kts 90°
2026-05-07 02:18 54.10051 -24.11142 37033 ft 452 kts 90°
2026-05-07 02:18 54.09953 -23.98738 37032 ft 453 kts 90°
2026-05-07 02:19 54.09859 -23.88048 37035 ft 453 kts 90°
2026-05-07 02:19 54.09772 -23.79035 37024 ft 454 kts 90°
2026-05-07 02:20 54.09660 -23.68337 37029 ft 454 kts 90°
2026-05-07 02:20 54.09537 -23.57568 37023 ft 455 kts 91°
2026-05-07 02:21 54.09405 -23.46768 37022 ft 455 kts 91°
2026-05-07 02:21 54.09264 -23.36052 37019 ft 455 kts 91°
2026-05-07 02:22 54.09112 -23.25226 37020 ft 455 kts 91°
2026-05-07 02:22 54.08951 -23.14431 37014 ft 455 kts 91°
2026-05-07 02:23 54.08781 -23.03705 37013 ft 455 kts 91°
2026-05-07 02:23 54.08602 -22.92987 36998 ft 455 kts 91°
2026-05-07 02:24 54.08412 -22.82241 37008 ft 455 kts 92°
2026-05-07 02:24 54.08213 -22.71457 37010 ft 455 kts 92°
2026-05-07 02:25 54.08003 -22.60642 37007 ft 456 kts 92°
2026-05-07 02:25 54.07783 -22.49832 37004 ft 456 kts 92°
2026-05-07 02:26 54.07555 -22.39077 37004 ft 456 kts 92°
2026-05-07 02:26 54.07317 -22.28305 37003 ft 457 kts 92°
2026-05-07 02:27 54.07068 -22.17472 37004 ft 457 kts 92°
2026-05-07 02:27 54.06809 -22.06630 37002 ft 457 kts 92°
2026-05-07 02:28 54.06544 -21.95960 36992 ft 457 kts 92°
2026-05-07 02:28 54.06266 -21.85135 36991 ft 457 kts 93°
2026-05-07 02:29 54.05978 -21.74283 36992 ft 457 kts 93°
2026-05-07 02:29 54.05681 -21.63499 36991 ft 457 kts 93°
2026-05-07 02:30 54.05374 -21.52683 36990 ft 457 kts 93°
2026-05-07 02:30 54.05059 -21.41936 36992 ft 457 kts 93°
2026-05-07 02:31 54.04733 -21.31121 36984 ft 457 kts 94°
2026-05-07 02:31 54.04398 -21.20365 36984 ft 457 kts 94°
2026-05-07 02:32 54.04052 -21.09546 36981 ft 457 kts 94°
2026-05-07 02:32 54.03701 -20.98846 36988 ft 457 kts 94°
2026-05-07 02:33 54.03337 -20.88090 36975 ft 458 kts 94°
2026-05-07 02:33 54.02961 -20.77252 36977 ft 458 kts 94°
2026-05-07 02:34 54.02575 -20.66400 36974 ft 458 kts 94°
2026-05-07 02:34 54.02182 -20.55615 36974 ft 459 kts 94°
2026-05-07 02:35 54.01776 -20.44759 36962 ft 459 kts 95°
2026-05-07 02:35 54.01361 -20.33911 36967 ft 459 kts 95°
2026-05-07 02:36 54.00938 -20.23124 36969 ft 459 kts 95°
2026-05-07 02:36 54.00504 -20.12265 36962 ft 460 kts 95°
2026-05-07 02:37 53.99978 -20.01408 36959 ft 459 kts 100°
2026-05-07 02:37 53.98522 -19.91012 36963 ft 456 kts 109°
2026-05-07 02:38 53.96657 -19.80702 36968 ft 457 kts 109°
2026-05-07 02:38 53.94791 -19.70428 36959 ft 457 kts 109°
2026-05-07 02:39 53.92933 -19.60093 36951 ft 457 kts 109°
2026-05-07 02:39 53.91078 -19.49746 36943 ft 457 kts 109°
2026-05-07 02:40 53.89219 -19.39424 36946 ft 457 kts 109°
2026-05-07 02:40 53.87356 -19.29138 36947 ft 456 kts 110°
2026-05-07 02:41 53.85496 -19.18932 36949 ft 455 kts 110°
2026-05-07 02:41 53.83616 -19.08675 36942 ft 455 kts 110°
2026-05-07 02:42 53.81758 -18.98594 36941 ft 454 kts 110°
2026-05-07 02:42 53.79866 -18.88385 36940 ft 454 kts 110°
2026-05-07 02:43 53.77970 -18.78207 36928 ft 453 kts 110°
2026-05-07 02:43 53.76062 -18.68023 36942 ft 453 kts 110°
2026-05-07 02:44 53.74160 -18.57924 36933 ft 452 kts 110°
2026-05-07 02:44 53.72239 -18.47779 36941 ft 452 kts 111°
2026-05-07 02:45 53.70321 -18.37709 36929 ft 452 kts 111°
2026-05-07 02:45 53.68385 -18.27593 36932 ft 451 kts 111°
2026-05-07 02:46 53.66457 -18.17571 36928 ft 451 kts 111°
2026-05-07 02:46 53.64507 -18.07490 36926 ft 451 kts 111°
2026-05-07 02:47 53.62568 -17.97520 36924 ft 450 kts 111°
2026-05-07 02:47 53.60621 -17.87552 36925 ft 450 kts 112°
2026-05-07 02:48 53.58651 -17.77526 36926 ft 450 kts 112°
2026-05-07 02:48 53.56676 -17.67528 36926 ft 449 kts 112°
2026-05-07 02:49 53.54707 -17.57608 36920 ft 449 kts 112°
2026-05-07 02:49 53.52719 -17.47645 36920 ft 449 kts 112°
2026-05-07 02:50 53.50717 -17.37662 36919 ft 449 kts 112°
2026-05-07 02:50 53.48727 -17.27791 36901 ft 448 kts 112°
2026-05-07 02:51 53.46717 -17.17865 36914 ft 448 kts 112°
2026-05-07 02:51 53.44715 -17.08031 36911 ft 447 kts 112°
2026-05-07 02:52 53.42713 -16.98246 36915 ft 446 kts 112°
2026-05-07 02:52 53.40701 -16.88459 36910 ft 446 kts 113°
2026-05-07 02:53 53.38672 -16.78642 36909 ft 445 kts 113°
2026-05-07 02:53 53.36639 -16.68850 36914 ft 445 kts 113°
2026-05-07 02:54 53.34597 -16.59065 36912 ft 444 kts 113°
2026-05-07 02:54 53.32563 -16.49362 36915 ft 443 kts 113°
2026-05-07 02:55 53.30510 -16.39616 36894 ft 443 kts 113°
2026-05-07 02:55 53.28449 -16.29884 36909 ft 442 kts 113°
2026-05-07 02:56 53.26402 -16.20262 36909 ft 442 kts 113°
2026-05-07 02:56 53.24326 -16.10549 36907 ft 441 kts 114°
2026-05-07 02:57 53.22265 -16.00950 36915 ft 441 kts 114°
2026-05-07 02:57 53.20192 -15.91341 36916 ft 441 kts 114°
2026-05-07 02:58 53.18111 -15.81740 36901 ft 441 kts 114°
2026-05-07 02:58 53.16369 -15.73739 36913 ft 441 kts 114°
2026-05-07 02:59 53.13920 -15.62540 36913 ft 441 kts 114°
2026-05-07 02:59 53.12163 -15.54543 36912 ft 442 kts 114°
2026-05-07 03:00 53.10039 -15.44918 36904 ft 442 kts 114°
2026-05-07 03:00 53.07923 -15.35373 36909 ft 441 kts 114°
2026-05-07 03:01 53.05791 -15.25795 36914 ft 441 kts 114°
2026-05-07 03:01 53.03651 -15.16222 36911 ft 441 kts 114°
2026-05-07 03:02 53.01510 -15.06670 36908 ft 441 kts 112°
2026-05-07 03:02 53.00157 -14.96865 36914 ft 445 kts 99°
2026-05-07 03:03 52.99936 -14.86542 36912 ft 447 kts 92°
2026-05-07 03:03 53.00021 -14.76260 36919 ft 447 kts 91°
2026-05-07 03:04 53.00080 -14.65922 36913 ft 447 kts 92°
2026-05-07 03:04 53.00099 -14.55581 36917 ft 447 kts 92°
2026-05-07 03:05 53.00099 -14.45317 36911 ft 447 kts 92°
2026-05-07 03:05 53.00091 -14.34973 36909 ft 447 kts 92°
2026-05-07 03:06 53.00074 -14.24727 36918 ft 446 kts 92°
2026-05-07 03:06 53.00050 -14.14411 36913 ft 446 kts 92°
2026-05-07 03:07 53.00017 -14.04104 36915 ft 445 kts 92°
2026-05-07 03:07 52.99584 -13.94008 36920 ft 442 kts 100°
2026-05-07 03:08 52.98708 -13.83904 36917 ft 441 kts 101°
2026-05-07 03:08 52.97812 -13.73842 36915 ft 441 kts 101°
2026-05-07 03:09 52.96932 -13.63789 36917 ft 441 kts 101°
2026-05-07 03:09 52.96061 -13.53765 36908 ft 441 kts 100°
2026-05-07 03:10 52.95180 -13.43696 36919 ft 441 kts 100°
2026-05-07 03:10 52.94290 -13.33615 36913 ft 441 kts 100°
2026-05-07 03:11 52.93398 -13.23612 36915 ft 440 kts 100°
2026-05-07 03:11 52.92491 -13.13551 36913 ft 440 kts 100°
2026-05-07 03:12 52.91577 -13.03506 36928 ft 440 kts 101°
2026-05-07 03:12 52.90670 -12.93632 36923 ft 440 kts 101°
2026-05-07 03:13 52.89738 -12.83584 36917 ft 439 kts 101°
2026-05-07 03:13 52.88807 -12.73641 36917 ft 439 kts 101°
2026-05-07 03:14 52.87861 -12.63635 36923 ft 438 kts 101°
2026-05-07 03:15 52.86429 -12.48661 36917 ft 438 kts 101°
2026-05-07 03:15 52.85471 -12.38755 36929 ft 438 kts 101°
2026-05-07 03:16 52.84499 -12.28803 36918 ft 437 kts 101°
2026-05-07 03:16 52.83521 -12.18871 36923 ft 437 kts 101°
2026-05-07 03:17 52.82533 -12.08922 36929 ft 437 kts 101°
2026-05-07 03:17 52.81553 -11.99150 36926 ft 437 kts 101°
2026-05-07 03:18 52.80551 -11.89236 36937 ft 437 kts 101°
2026-05-07 03:18 52.79540 -11.79323 36931 ft 436 kts 101°
2026-05-07 03:19 52.78531 -11.69511 36938 ft 436 kts 101°
2026-05-07 03:19 52.77505 -11.59624 36942 ft 436 kts 101°
2026-05-07 03:20 52.76471 -11.49740 36935 ft 436 kts 101°
2026-05-07 03:20 52.75428 -11.39859 36929 ft 436 kts 101°
2026-05-07 03:21 52.74387 -11.30071 36934 ft 435 kts 102°
2026-05-07 03:21 52.73330 -11.20211 36936 ft 435 kts 102°
2026-05-07 03:22 52.72272 -11.10433 36935 ft 435 kts 102°
2026-05-07 03:22 52.71201 -11.00601 36938 ft 434 kts 102°
2026-05-07 03:23 52.70134 -10.90894 36951 ft 434 kts 102°
2026-05-07 03:23 52.69049 -10.81097 36942 ft 434 kts 102°
2026-05-07 03:24 52.67963 -10.71367 36953 ft 433 kts 102°
2026-05-07 03:24 52.66862 -10.61582 36955 ft 433 kts 102°
2026-05-07 03:25 52.65754 -10.51810 36932 ft 433 kts 102°
2026-05-07 03:25 52.64639 -10.42057 36957 ft 433 kts 102°
2026-05-07 03:26 52.63521 -10.32345 36956 ft 433 kts 102°
2026-05-07 03:26 52.62388 -10.22587 36944 ft 433 kts 102°
2026-05-07 03:27 52.61247 -10.12828 36965 ft 433 kts 102°
2026-05-07 03:27 52.60104 -10.03122 36959 ft 434 kts 102°
2026-05-07 03:28 52.58959 -9.93473 36939 ft 434 kts 102°
2026-05-07 03:28 52.57794 -9.83730 36957 ft 433 kts 102°
2026-05-07 03:29 52.56625 -9.74022 36959 ft 432 kts 102°
2026-05-07 03:29 52.55458 -9.64401 36962 ft 431 kts 102°
2026-05-07 03:30 52.54277 -9.54736 36963 ft 429 kts 102°
2026-05-07 03:30 52.53100 -9.45172 36964 ft 428 kts 102°
2026-05-07 03:31 52.51911 -9.35583 36971 ft 428 kts 102°
2026-05-07 03:31 52.50716 -9.26005 36970 ft 428 kts 102°
2026-05-07 03:32 52.49519 -9.16483 36961 ft 428 kts 103°
2026-05-07 03:32 52.48305 -9.06887 36973 ft 428 kts 103°
2026-05-07 03:33 52.47102 -8.97448 36970 ft 429 kts 103°
2026-05-07 03:33 52.45871 -8.87857 36975 ft 429 kts 103°
2026-05-07 03:34 52.44632 -8.78267 36970 ft 430 kts 103°
2026-05-07 03:34 52.43390 -8.68715 36976 ft 430 kts 103°
2026-05-07 03:35 52.42135 -8.59131 36968 ft 429 kts 103°
2026-05-07 03:35 52.40874 -8.49570 36968 ft 429 kts 103°
2026-05-07 03:36 52.39607 -8.40021 36969 ft 428 kts 103°
2026-05-07 03:36 52.38335 -8.30501 36971 ft 427 kts 103°
2026-05-07 03:37 52.37068 -8.21079 36972 ft 426 kts 103°
2026-05-07 03:37 52.35785 -8.11599 36973 ft 425 kts 103°
2026-05-07 03:38 52.34504 -8.02195 36969 ft 425 kts 103°
2026-05-07 03:38 52.33220 -7.92829 36968 ft 425 kts 103°
2026-05-07 03:39 52.31916 -7.83376 36971 ft 425 kts 103°
2026-05-07 03:39 52.30614 -7.73999 36971 ft 425 kts 103°
2026-05-07 03:40 52.29294 -7.64554 36971 ft 426 kts 103°
2026-05-07 03:40 52.28191 -7.56701 36970 ft 426 kts 103°
2026-05-07 03:41 52.26858 -7.47268 36977 ft 426 kts 103°
2026-05-07 03:41 52.25521 -7.37873 36965 ft 426 kts 103°
2026-05-07 03:42 52.24176 -7.28471 36973 ft 425 kts 103°
2026-05-07 03:42 52.22822 -7.19068 36965 ft 425 kts 103°
2026-05-07 03:43 52.21466 -7.09706 36975 ft 423 kts 103°
2026-05-07 03:43 52.20111 -7.00409 36967 ft 423 kts 103°
2026-05-07 03:44 52.18756 -6.91162 36974 ft 423 kts 104°
2026-05-07 03:44 52.17379 -6.81829 36973 ft 423 kts 103°
2026-05-07 03:45 52.16005 -6.72565 36976 ft 423 kts 103°
2026-05-07 03:45 52.14613 -6.63240 36984 ft 423 kts 104°
2026-05-07 03:46 52.13211 -6.53896 36977 ft 424 kts 104°
2026-05-07 03:46 52.11808 -6.44601 36981 ft 425 kts 104°
2026-05-07 03:47 52.10379 -6.35196 36978 ft 426 kts 104°
2026-05-07 03:47 52.08956 -6.25875 36983 ft 426 kts 104°
2026-05-07 03:48 52.07518 -6.16515 36983 ft 426 kts 104°
2026-05-07 03:48 52.06074 -6.07160 36975 ft 426 kts 104°
2026-05-07 03:49 52.04596 -5.97987 36982 ft 425 kts 105°
2026-05-07 03:49 52.02994 -5.88726 36981 ft 425 kts 105°
2026-05-07 03:50 52.01386 -5.79474 36983 ft 424 kts 105°
2026-05-07 03:50 51.99796 -5.70296 36985 ft 424 kts 105°
2026-05-07 03:51 51.98196 -5.61076 36982 ft 424 kts 105°
2026-05-07 03:51 51.96590 -5.51873 36989 ft 423 kts 105°
2026-05-07 03:52 51.94989 -5.42745 36982 ft 423 kts 105°
2026-05-07 03:52 51.93371 -5.33555 36991 ft 423 kts 105°
2026-05-07 03:53 51.91743 -5.24366 36983 ft 424 kts 105°
2026-05-07 03:53 51.90509 -5.15018 36994 ft 424 kts 100°
2026-05-07 03:54 51.89441 -5.05674 36995 ft 424 kts 100°
2026-05-07 03:54 51.88359 -4.96337 36991 ft 425 kts 101°
2026-05-07 03:55 51.87242 -4.86895 37002 ft 426 kts 101°
2026-05-07 03:55 51.86117 -4.77514 36997 ft 427 kts 101°
2026-05-07 03:56 51.84984 -4.68132 36973 ft 427 kts 101°
2026-05-07 03:56 51.83836 -4.58697 37000 ft 426 kts 101°
2026-05-07 03:57 51.82684 -4.49286 37000 ft 425 kts 101°
2026-05-07 03:57 51.81533 -4.39950 37000 ft 425 kts 101°
2026-05-07 03:58 51.80368 -4.30570 37010 ft 424 kts 101°
2026-05-07 03:58 51.79206 -4.21272 37005 ft 424 kts 101°
2026-05-07 03:59 51.78027 -4.11903 37006 ft 424 kts 101°
2026-05-07 03:59 51.76844 -4.02560 37014 ft 424 kts 101°
2026-05-07 04:00 51.75671 -3.93356 36995 ft 424 kts 101°
2026-05-07 04:00 51.74484 -3.84065 37018 ft 425 kts 101°
2026-05-07 04:01 51.73298 -3.74695 37028 ft 426 kts 101°
2026-05-07 04:01 51.72105 -3.65306 37025 ft 428 kts 101°
2026-05-07 04:02 51.70945 -3.55927 37026 ft 429 kts 98°
2026-05-07 04:02 51.70333 -3.46331 37035 ft 429 kts 95°
2026-05-07 04:03 51.69805 -3.36715 37048 ft 431 kts 95°
2026-05-07 04:03 51.69255 -3.27144 37063 ft 431 kts 95°
2026-05-07 04:04 51.68677 -3.17505 37064 ft 431 kts 95°
2026-05-07 04:04 51.68086 -3.07884 37073 ft 431 kts 95°
2026-05-07 04:05 51.67493 -2.98356 37074 ft 431 kts 95°
2026-05-07 04:05 51.66888 -2.88744 37079 ft 430 kts 95°
2026-05-07 04:06 51.66280 -2.79217 37042 ft 429 kts 96°
2026-05-07 04:06 51.65661 -2.69627 37039 ft 429 kts 96°
2026-05-07 04:07 51.65034 -2.60050 37038 ft 430 kts 96°
2026-05-07 04:07 51.64400 -2.50459 37043 ft 430 kts 96°
2026-05-07 04:08 51.63760 -2.40909 37050 ft 431 kts 96°
2026-05-07 04:08 51.63112 -2.31277 37057 ft 431 kts 96°
2026-05-07 04:09 51.62465 -2.21708 37056 ft 433 kts 96°
2026-05-07 04:09 51.61804 -2.12058 37056 ft 433 kts 96°
2026-05-07 04:10 51.61132 -2.02378 37054 ft 434 kts 96°
2026-05-07 04:10 51.60460 -1.92806 37053 ft 434 kts 96°
2026-05-07 04:11 51.59775 -1.83170 37061 ft 434 kts 96°
2026-05-07 04:11 51.59085 -1.73547 37058 ft 434 kts 96°
2026-05-07 04:12 51.58156 -1.63939 37061 ft 434 kts 104°
2026-05-07 04:12 51.56273 -1.54731 37053 ft 433 kts 109°
2026-05-07 04:13 51.54274 -1.45638 37056 ft 433 kts 109°
2026-05-07 04:13 51.52305 -1.36469 37049 ft 433 kts 109°
2026-05-07 04:14 51.50352 -1.27361 37052 ft 434 kts 109°
2026-05-07 04:14 51.48645 -1.18076 37050 ft 434 kts 101°
2026-05-07 04:15 51.47525 -1.08538 37042 ft 434 kts 101°
2026-05-07 04:15 51.46388 -0.99088 37053 ft 435 kts 101°
2026-05-07 04:16 51.45196 -0.89619 37037 ft 436 kts 101°
2026-05-07 04:16 51.43985 -0.80078 37053 ft 437 kts 101°
2026-05-07 04:17 51.42769 -0.70517 37048 ft 437 kts 101°
2026-05-07 04:17 51.41550 -0.60984 37046 ft 437 kts 102°
2026-05-07 04:18 51.40327 -0.51486 37052 ft 437 kts 102°
2026-05-07 04:18 51.39089 -0.41933 37054 ft 437 kts 102°
2026-05-07 04:19 51.38055 -0.34002 37050 ft 437 kts 102°
2026-05-07 04:19 51.36806 -0.24467 37044 ft 436 kts 102°
2026-05-07 04:20 51.35558 -0.15014 37049 ft 436 kts 102°
2026-05-07 04:20 51.34301 -0.05520 37053 ft 435 kts 102°
2026-05-07 04:21 51.32573 0.08577 37002 ft 435 kts 99°
2026-05-07 04:21 51.31680 0.18184 36973 ft 437 kts 98°
2026-05-07 04:22 51.30794 0.27837 36948 ft 438 kts 98°
2026-05-07 04:22 51.29887 0.37448 36934 ft 440 kts 99°
2026-05-07 04:23 51.28951 0.47169 36928 ft 442 kts 99°
2026-05-07 04:23 51.28010 0.56837 36935 ft 443 kts 99°
2026-05-07 04:24 51.27049 0.66613 36957 ft 443 kts 99°
2026-05-07 04:24 51.26084 0.76353 36974 ft 443 kts 99°
2026-05-07 04:25 51.25120 0.86007 36998 ft 442 kts 99°
2026-05-07 04:25 51.24142 0.95705 37035 ft 441 kts 99°
2026-05-07 04:26 51.23175 1.05223 37039 ft 440 kts 99°
2026-05-07 04:26 51.22188 1.14855 37040 ft 439 kts 99°
2026-05-07 04:27 51.21192 1.24483 37039 ft 439 kts 99°
2026-05-07 04:27 51.20196 1.34039 37033 ft 438 kts 99°
2026-05-07 04:28 51.19184 1.43669 37033 ft 439 kts 99°
2026-05-07 04:28 51.18171 1.53232 37032 ft 440 kts 100°
2026-05-07 04:29 51.17147 1.62824 37032 ft 441 kts 100°
2026-05-07 04:29 51.16108 1.72471 37025 ft 442 kts 100°
2026-05-07 04:30 51.15059 1.82142 37029 ft 443 kts 100°
2026-05-07 04:30 51.14000 1.91833 37024 ft 444 kts 100°
2026-05-07 04:31 51.13001 2.01336 37020 ft 444 kts 96°
2026-05-07 04:31 51.12450 2.11269 37039 ft 456 kts 95°
2026-05-07 04:32 51.11928 2.21711 37041 ft 472 kts 95°
2026-05-07 04:32 51.11368 2.32201 37035 ft 486 kts 95°
2026-05-07 04:33 51.10768 2.42969 37015 ft 488 kts 95°
2026-05-07 04:33 51.10160 2.53734 37008 ft 487 kts 95°
2026-05-07 04:34 51.09470 2.64440 37014 ft 485 kts 99°
2026-05-07 04:34 51.07879 2.74748 37023 ft 483 kts 107°
2026-05-07 04:35 51.05950 2.85032 37018 ft 482 kts 107°
2026-05-07 04:35 51.04024 2.95330 37022 ft 482 kts 107°
2026-05-07 04:36 51.02153 3.05456 37020 ft 482 kts 107°
2026-05-07 04:36 51.00276 3.15629 37021 ft 482 kts 107°
2026-05-07 04:37 50.98370 3.25907 37020 ft 483 kts 107°
2026-05-07 04:37 50.96459 3.36148 37018 ft 483 kts 107°
2026-05-07 04:38 50.94556 3.46283 37019 ft 483 kts 107°
2026-05-07 04:38 50.92639 3.56439 37020 ft 484 kts 107°
2026-05-07 04:39 50.90687 3.66724 37019 ft 484 kts 107°
2026-05-07 04:39 50.88738 3.76940 37016 ft 484 kts 107°
2026-05-07 04:40 50.86790 3.87093 37019 ft 484 kts 107°
2026-05-07 04:40 50.84826 3.97276 37019 ft 484 kts 107°
2026-05-07 04:41 50.82868 4.07371 37020 ft 484 kts 107°
2026-05-07 04:41 50.80882 4.17558 37021 ft 483 kts 108°
2026-05-07 04:42 50.78892 4.27714 37018 ft 483 kts 108°
2026-05-07 04:42 50.76892 4.37864 37022 ft 483 kts 108°
2026-05-07 04:43 50.74900 4.47924 37019 ft 482 kts 108°
2026-05-07 04:43 50.72889 4.58029 37022 ft 482 kts 108°
2026-05-07 04:44 50.70886 4.68036 37003 ft 482 kts 108°
2026-05-07 04:44 50.69216 4.76344 37014 ft 481 kts 108°
2026-05-07 04:45 50.67185 4.86398 36997 ft 477 kts 108°
2026-05-07 04:45 50.65858 4.92943 36828 ft 466 kts 108°
2026-05-07 04:45 50.65194 4.96206 36707 ft 462 kts 108°
2026-05-07 04:46 50.64238 5.00899 36415 ft 458 kts 108°
2026-05-07 04:46 50.63267 5.05655 36071 ft 455 kts 108°
2026-05-07 04:46 50.62308 5.10335 35717 ft 453 kts 108°
2026-05-07 04:46 50.61331 5.15098 35398 ft 450 kts 108°
2026-05-07 04:47 50.60379 5.19723 35125 ft 446 kts 108°
2026-05-07 04:47 50.59423 5.24361 34832 ft 442 kts 108°
2026-05-07 04:47 50.58469 5.28979 34544 ft 439 kts 108°
2026-05-07 04:47 50.57525 5.33537 34248 ft 436 kts 107°
2026-05-07 04:48 50.56596 5.38011 33945 ft 433 kts 107°
2026-05-07 04:48 50.55658 5.42520 33600 ft 430 kts 107°
2026-05-07 04:48 50.54732 5.46966 33235 ft 428 kts 107°
2026-05-07 04:48 50.53800 5.51429 32880 ft 426 kts 107°
2026-05-07 04:49 50.52886 5.55796 32525 ft 424 kts 108°
2026-05-07 04:49 50.51963 5.60195 32174 ft 421 kts 108°
2026-05-07 04:49 50.51055 5.64572 31848 ft 419 kts 107°
2026-05-07 04:49 50.50225 5.68905 31525 ft 416 kts 105°
2026-05-07 04:50 50.49418 5.73292 31225 ft 414 kts 105°
2026-05-07 04:50 50.48634 5.77588 30917 ft 412 kts 105°
2026-05-07 04:50 50.47842 5.81895 30616 ft 409 kts 105°
2026-05-07 04:50 50.47044 5.86196 30307 ft 407 kts 105°
2026-05-07 04:51 50.46246 5.90464 30001 ft 406 kts 105°
2026-05-07 04:51 50.45448 5.94704 29643 ft 404 kts 105°
2026-05-07 04:51 50.44652 5.98918 29297 ft 402 kts 105°
2026-05-07 04:51 50.43871 6.03036 29030 ft 402 kts 105°
2026-05-07 04:52 50.43075 6.07224 28830 ft 400 kts 106°
2026-05-07 04:52 50.42282 6.11386 28648 ft 397 kts 105°
2026-05-07 04:52 50.41490 6.15535 28416 ft 396 kts 105°
2026-05-07 04:52 50.40700 6.19673 28157 ft 396 kts 106°
2026-05-07 04:53 50.39911 6.23797 27941 ft 394 kts 106°
2026-05-07 04:53 50.39123 6.27910 27737 ft 393 kts 106°
2026-05-07 04:53 50.38337 6.31998 27505 ft 392 kts 106°
2026-05-07 04:53 50.37546 6.36085 27269 ft 391 kts 106°
2026-05-07 04:54 50.36756 6.40155 27009 ft 389 kts 104°
2026-05-07 04:54 50.36187 6.44285 26590 ft 387 kts 97°
2026-05-07 04:54 50.35894 6.48460 26161 ft 384 kts 95°
2026-05-07 04:54 50.35653 6.52610 25747 ft 381 kts 94°
2026-05-07 04:55 50.35418 6.56679 25342 ft 379 kts 95°
2026-05-07 04:55 50.35173 6.60785 24928 ft 377 kts 95°
2026-05-07 04:55 50.34922 6.64856 24512 ft 375 kts 95°
2026-05-07 04:55 50.34668 6.68860 24113 ft 373 kts 95°
2026-05-07 04:56 50.34409 6.72910 23711 ft 372 kts 95°
2026-05-07 04:56 50.34154 6.76932 23265 ft 371 kts 95°
2026-05-07 04:56 50.33913 6.80942 22819 ft 369 kts 95°
2026-05-07 04:56 50.33667 6.84920 22386 ft 365 kts 97°
2026-05-07 04:57 50.33007 6.88688 21973 ft 357 kts 115°
2026-05-07 04:57 50.31897 6.92151 21619 ft 354 kts 116°
2026-05-07 04:57 50.30819 6.95604 21203 ft 352 kts 115°
2026-05-07 04:57 50.29777 6.99054 20818 ft 350 kts 115°
2026-05-07 04:58 50.28779 7.02397 20446 ft 348 kts 115°
2026-05-07 04:58 50.27756 7.05828 20054 ft 347 kts 115°
2026-05-07 04:58 50.26741 7.09226 19671 ft 345 kts 114°
2026-05-07 04:58 50.25733 7.12598 19287 ft 344 kts 114°
2026-05-07 04:59 50.24709 7.16019 18902 ft 343 kts 114°
2026-05-07 04:59 50.24560 7.16515 18841 ft 343 kts 114°
2026-05-07 05:16 50.23682 7.19444 18570 ft 341 kts 115°
2026-05-07 05:17 50.22701 7.22715 18161 ft 342 kts 114°
2026-05-07 05:17 50.21691 7.26076 17700 ft 341 kts 115°
2026-05-07 05:17 50.20681 7.29427 17284 ft 340 kts 114°
2026-05-07 05:17 50.19678 7.32759 16894 ft 338 kts 114°
2026-05-07 05:18 50.18781 7.36130 16500 ft 336 kts 110°
2026-05-07 05:18 50.17976 7.39547 16128 ft 334 kts 109°
2026-05-07 05:18 50.17195 7.42944 15760 ft 332 kts 109°
2026-05-07 05:18 50.16410 7.46323 15403 ft 331 kts 109°
2026-05-07 05:19 50.15631 7.49640 15035 ft 329 kts 109°
2026-05-07 05:19 50.14835 7.52993 14537 ft 332 kts 109°
2026-05-07 05:19 50.14013 7.56438 13761 ft 348 kts 110°
2026-05-07 05:19 50.13130 7.60126 13768 ft 373 kts 110°
2026-05-07 05:20 50.12216 7.63923 13637 ft 375 kts 110°
2026-05-07 05:20 50.11294 7.67717 13535 ft 370 kts 111°
2026-05-07 05:20 50.10134 7.71180 13433 ft 358 kts 122°
2026-05-07 05:20 50.08728 7.74312 13342 ft 348 kts 126°
2026-05-07 05:21 50.07313 7.77280 13262 ft 335 kts 126°
2026-05-07 05:21 50.04666 7.82982 12467 ft 323 kts 125°
2026-05-07 05:21 50.03391 7.85821 12215 ft 318 kts 124°
2026-05-07 05:22 50.02131 7.88640 11850 ft 316 kts 124°
2026-05-07 05:22 50.00879 7.91453 11464 ft 314 kts 123°
2026-05-07 05:22 50.00035 7.94513 11053 ft 311 kts 98°
2026-05-07 05:22 50.00057 7.97875 10908 ft 314 kts 76°
2026-05-07 05:23 50.00700 8.00999 10792 ft 313 kts 68°
2026-05-07 05:23 50.01481 8.04136 10664 ft 312 kts 66°
2026-05-07 05:23 50.02276 8.07275 10543 ft 310 kts 66°
2026-05-07 05:23 50.03060 8.10389 10444 ft 308 kts 67°
2026-05-07 05:24 50.03832 8.13488 10347 ft 307 kts 67°
2026-05-07 05:24 50.04597 8.16587 10235 ft 306 kts 67°
2026-05-07 05:24 50.05099 8.18636 10169 ft 306 kts 67°
2026-05-07 05:24 50.05861 8.21758 10077 ft 300 kts 67°
2026-05-07 05:25 50.06598 8.24794 9969 ft 293 kts 66°
2026-05-07 05:25 50.07299 8.27689 9858 ft 286 kts 66°
2026-05-07 05:25 50.08014 8.30639 9769 ft 288 kts 66°
2026-05-07 05:25 50.08719 8.33552 9672 ft 287 kts 66°
2026-05-07 05:26 50.09411 8.36422 9567 ft 286 kts 66°
2026-05-07 05:26 50.10108 8.39316 9473 ft 285 kts 66°
2026-05-07 05:26 50.10802 8.42207 9378 ft 284 kts 66°
2026-05-07 05:26 50.11482 8.45044 9280 ft 283 kts 66°
2026-05-07 05:27 50.12149 8.47826 9210 ft 281 kts 67°
2026-05-07 05:27 50.12831 8.50677 9110 ft 281 kts 67°
2026-05-07 05:27 50.13514 8.53535 9020 ft 280 kts 67°
2026-05-07 05:27 50.14183 8.56342 8676 ft 272 kts 67°
2026-05-07 05:28 50.14842 8.59103 8218 ft 274 kts 67°
2026-05-07 05:28 50.15496 8.61844 7869 ft 272 kts 67°
2026-05-07 05:28 50.16144 8.64575 7352 ft 266 kts 67°
2026-05-07 05:28 50.16783 8.67268 6665 ft 265 kts 67°
2026-05-07 05:29 50.17426 8.69970 6031 ft 265 kts 68°
2026-05-07 05:29 50.18065 8.72660 5693 ft 265 kts 68°
2026-05-07 05:29 50.18698 8.75337 5479 ft 260 kts 67°
2026-05-07 05:29 50.19320 8.77965 5338 ft 253 kts 68°
2026-05-07 05:30 50.19914 8.80484 5251 ft 244 kts 68°
2026-05-07 05:30 50.20484 8.82911 5177 ft 233 kts 68°
2026-05-07 05:30 50.20836 8.85314 5145 ft 231 kts 92°
2026-05-07 05:30 50.20319 8.87676 5126 ft 227 kts 128°
2026-05-07 05:31 50.19083 8.89121 5074 ft 222 kts 159°
2026-05-07 05:31 50.17639 8.89873 4942 ft 222 kts 166°
2026-05-07 05:31 50.16146 8.90216 4842 ft 221 kts 181°
2026-05-07 05:31 50.14617 8.89945 4708 ft 222 kts 195°
2026-05-07 05:32 50.13253 8.89037 4569 ft 219 kts 214°
2026-05-07 05:32 50.12066 8.87523 4241 ft 222 kts 229°
2026-05-07 05:32 50.11156 8.85796 4118 ft 211 kts 237°
2026-05-07 05:32 50.10354 8.83862 3855 ft 209 kts 244°
2026-05-07 05:33 50.09663 8.81831 3575 ft 208 kts 246°
2026-05-07 05:33 50.09068 8.79823 3304 ft 208 kts 250°
2026-05-07 05:33 50.08550 8.77746 3015 ft 207 kts 252°
2026-05-07 05:33 50.08050 8.75646 2734 ft 205 kts 252°
2026-05-07 05:34 50.07567 8.73609 2455 ft 201 kts 252°
2026-05-07 05:34 50.07111 8.71699 2222 ft 185 kts 253°
2026-05-07 05:34 50.06681 8.69886 1943 ft 177 kts 253°
2026-05-07 05:34 50.06250 8.68073 1733 ft 177 kts 253°
2026-05-07 05:35 50.05837 8.66346 1470 ft 161 kts 253°
2026-05-07 05:35 50.05472 8.64810 1247 ft 144 kts 252°
2026-05-07 05:35 50.05130 8.63372 1055 ft 142 kts 253°
2026-05-07 05:35 50.04788 8.61948 845 ft 139 kts 251°
2026-05-07 05:36 50.04446 8.60559 688 ft 139 kts 252°
2026-05-07 05:36 50.04112 8.59137 483 ft 138 kts 252°
2026-05-07 05:36 50.03780 8.57754 371 ft 132 kts 251°
2026-05-07 05:36 50.03513 8.56601 361 ft 91 kts 250°
2026-05-07 05:37 50.03349 8.55909 356 ft 51 kts 250°
2026-05-07 05:37 50.03312 8.55607 353 ft 25 kts 266°
2026-05-07 05:37 50.03331 8.55339 352 ft 24 kts 280°
2026-05-07 05:37 50.03339 8.55267 347 ft 1 kts 281°
2026-05-07 05:38 50.03342 8.55250 347 ft 2 kts 281°
2026-05-07 05:38 50.03345 8.55221 349 ft 3 kts 281°
2026-05-07 05:38 50.03350 8.55181 350 ft 4 kts 281°
2026-05-07 05:38 50.03357 8.55123 353 ft 8 kts 281°
2026-05-07 05:39 50.03380 8.55016 358 ft 13 kts 295°
2026-05-07 05:39 50.03419 8.54900 351 ft 8 kts 306°
2026-05-07 05:39 50.03477 8.54838 358 ft 12 kts 335°
2026-05-07 05:39 50.03487 8.54831 356 ft 0 kts 335°
2026-05-07 05:40 50.03500 8.54822 357 ft 6 kts 336°
2026-05-07 05:40 50.03566 8.54779 354 ft 15 kts 340°
2026-05-07 05:40 50.03689 8.54712 354 ft 18 kts 341°
2026-05-07 05:41 50.03743 8.54732 361 ft 6 kts 47°
2026-05-07 05:41 50.03766 8.54786 357 ft 7 kts 62°
2026-05-07 05:41 50.03799 8.54904 362 ft 17 kts 69°
2026-05-07 05:41 50.03851 8.55126 357 ft 27 kts 70°
2026-05-07 05:42 50.03928 8.55444 362 ft 32 kts 70°
2026-05-07 05:42 50.03992 8.55725 358 ft 27 kts 71°
2026-05-07 05:42 50.04038 8.55913 362 ft 10 kts 68°
2026-05-07 05:42 50.04064 8.56017 361 ft 11 kts 69°
2026-05-07 05:43 50.04098 8.56155 366 ft 16 kts 70°
2026-05-07 05:43 50.04144 8.56354 365 ft 24 kts 70°
2026-05-07 05:43 50.04218 8.56663 368 ft 30 kts 70°
2026-05-07 05:43 50.04291 8.56969 370 ft 27 kts 68°
2026-05-07 05:44 50.04359 8.57254 371 ft 30 kts 71°
2026-05-07 05:44 50.04397 8.57425 372 ft 9 kts 70°
2026-05-07 05:44 50.04427 8.57534 370 ft 12 kts 55°
2026-05-07 05:44 50.04506 8.57552 369 ft 14 kts 342°
2026-05-07 05:45 50.04540 8.57530 372 ft 3 kts 336°
2026-05-07 05:45 50.04576 8.57509 368 ft 8 kts 349°
2026-05-07 05:45 50.04622 8.57548 369 ft 6 kts 41°
2026-05-07 05:45 50.04650 8.57577 368 ft 2 kts 26°
2026-05-07 05:46 50.04678 8.57599 369 ft 0 kts 25°
2026-05-07 05:46 50.04694 8.57610 368 ft 5 kts 25°
2026-05-07 05:46 50.04703 8.57617 366 ft 0 kts 25°